User: anonymous
Location: Ladysmith
(45.4630°N, 91.1040°W)
Time: 16:16:08
(UTC-05:00)
Language:

SO-67 - Orbit

View from above orbital plane
View from above orbital plane
View from above satellite
View from above satellite

Ground track
Ground track

The orbit data is extracted from the following two-line orbital elements,

1 35870U 09049F   14211.46689163  .00005700  00000-0  17815-3 0  3808
2 35870 097.1595 231.3656 0000986 056.4595 049.6615 15.33540804270681
Epoch (UTC): 30 July 2014 11:12:19
Eccentricity: 0.0000986
inclination: 97.1595°
perigee height: 464 km
apogee height: 466 km
right ascension of ascending node: 231.3656°
argument of perigee: 56.4595°
revolutions per day: 15.33540804
mean anomaly at epoch: 49.6615°
orbit number at epoch: 27068

The dashed part of the orbit path shows where the satellite is in the earth's shadow,  

DLR